Location: Bas-Clignon
(44.2000°N, 6.6333°E)
Time: 07:24:23
(UTC+00:00)

CSL-04 Debris - Pass Details

Date: 03 February 2023
Orbit: 826 x 845 km, 98.8° (Epoch: 26 March)

Event Time Altitude Azimuth Distance (km) Brightness Sun altitude
Exits shadow 18:39:41 41° 88° (E) 1,183 4.4 -20.7°
Maximum altitude 18:40:22 43° 68° (ENE) 1,148 4.4 -20.8°
Drops below altitude 10° 18:45:27 10° 358° (N) 2,443 6.6 -21.7°
Sets 18:47:54 0° 352° (N) 3,379 7.4 -22.1°
